Weather History for Atka, AK

Change the Weather History Date:

Sunday, December 9, 2012

  Actual Average (PADK) Record (PADK)
Temperature  
Mean Temperature 32 °F -  
Max Temperature 35 °F 38 °F 46 °F (1979)
Min Temperature 30 °F 28 °F 13 °F (1967)
Degree Days  
Heating Degree Days 32    
Moisture  
Dew Point -15 °F    
Average Humidity 12    
Maximum Humidity 13    
Minimum Humidity 11    
Precipitation  
Precipitation 0.00 in - - ()
Sea Level Pressure  
Sea Level Pressure 29.61 in    
Wind  
Wind Speed 18 mph (WNW)    
Max Wind Speed 28 mph    
Max Gust Speed 33 mph    
Visibility 9 miles    
Events      
Averages and records for this station are not official NWS values.
T = Trace of Precipitation, MM = Missing Value Source: NWS Daily Summary

Daily Weather History Graph

Daily Weather History Graph

Search for Another Location

Airport:

Trip Planner

Search our weather history database for the weather conditions in past years. The results will help you decide how hot, cold, wet, or windy it might be!

Date:

Astronomy

Dec. 09, 2012 Rise Set
Actual Time 9:34 AM HAST 5:24 PM HAST
Civil Twilight 8:53 AM HAST 6:05 PM HAST
Nautical Twilight 8:10 AM HAST 6:48 PM HAST
Astronomical Twilight 7:28 AM HAST 7:30 PM HAST
Moon 5:01 AM HAST (12/9) 2:59 PM HAST (12/9)
Length of Visible Light 9h 11m
Length of Day
7h 49m
Waning Crescent, 17% of the Moon is Illuminated
Dec 9
Waning Crescent
Dec 12
New
Dec 19
First Quarter
Dec 28
Full
Jan 4
Last Quarter

Hourly Weather History & Observations

Time (HAST) Temp. Windchill Dew Point Humidity Pressure Visibility Wind Dir Wind Speed Gust Speed Precip Events Conditions
12:16 AM 32.0 °F 19.5 °F -16.6 °F 12% 29.21 in 5.0 mi NW 21.9 mph 26.5 mph N/A   Overcast
12:36 AM 32.0 °F 18.1 °F -16.6 °F 12% 29.22 in 5.0 mi NW 27.6 mph 32.2 mph N/A   Overcast
12:56 AM 32.0 °F 18.4 °F -16.6 °F 12% 29.23 in 8.0 mi WNW 26.5 mph 32.2 mph N/A   Overcast
1:16 AM 32.0 °F 18.4 °F -16.6 °F 12% 29.25 in 6.0 mi NW 26.5 mph 33.4 mph N/A   Overcast
1:36 AM 30.2 °F 17.1 °F -16.6 °F 13% 29.26 in 3.0 mi NW 21.9 mph 33.4 mph N/A   Mostly Cloudy
1:56 AM 32.0 °F 18.9 °F -16.6 °F 12% 29.28 in 4.0 mi WNW 24.2 mph 33.4 mph N/A   Overcast
2:16 AM 32.0 °F 19.5 °F -16.6 °F 12% 29.30 in 6.0 mi NW 21.9 mph 27.6 mph N/A   Mostly Cloudy
2:36 AM 32.0 °F 19.8 °F -16.6 °F 12% 29.32 in 4.0 mi WNW 20.7 mph 26.5 mph N/A   Overcast
2:56 AM 32.0 °F 20.5 °F -16.6 °F 12% 29.33 in 5.0 mi NW 18.4 mph 29.9 mph N/A   Overcast
3:16 AM 32.0 °F 19.8 °F -16.6 °F 12% 29.35 in 3.0 mi NW 20.7 mph 25.3 mph N/A   Overcast
3:36 AM 32.0 °F 19.2 °F -16.6 °F 12% 29.36 in 2.5 mi NW 23.0 mph - N/A   Overcast
3:56 AM 32.0 °F 21.6 °F -16.6 °F 12% 29.38 in 6.0 mi WNW 15.0 mph - N/A   Mostly Cloudy
4:16 AM 33.8 °F 22.8 °F -14.8 °F 12% 29.40 in 9.0 mi WNW 18.4 mph 23.0 mph N/A   Overcast
4:36 AM 33.8 °F 23.9 °F -14.8 °F 12% 29.40 in 9.0 mi NW 15.0 mph 20.7 mph N/A   Overcast
4:56 AM 33.8 °F 22.5 °F -14.8 °F 12% 29.41 in 8.0 mi WNW 19.6 mph 24.2 mph N/A   Mostly Cloudy
5:16 AM 33.8 °F 23.2 °F -14.8 °F 12% 29.42 in 8.0 mi WNW 17.3 mph - N/A   Overcast
5:36 AM 33.8 °F 21.9 °F -14.8 °F 12% 29.43 in 10.0 mi NW 21.9 mph 26.5 mph N/A   Overcast
5:56 AM 33.8 °F 23.2 °F -14.8 °F 12% 29.44 in 10.0 mi WNW 17.3 mph 26.5 mph N/A   Overcast
6:16 AM 33.8 °F 22.5 °F -14.8 °F 12% 29.45 in 10.0 mi WNW 19.6 mph 23.0 mph N/A   Overcast
6:36 AM 33.8 °F 22.8 °F -14.8 °F 12% 29.46 in 10.0 mi WNW 18.4 mph 25.3 mph N/A   Overcast
6:56 AM 33.8 °F 22.5 °F -14.8 °F 12% 29.47 in 10.0 mi WNW 19.6 mph - N/A   Overcast
7:16 AM 33.8 °F 23.5 °F -14.8 °F 12% 29.48 in 10.0 mi NW 16.1 mph 24.2 mph N/A   Overcast
7:36 AM 33.8 °F 23.5 °F -14.8 °F 12% 29.49 in 10.0 mi NW 16.1 mph 25.3 mph N/A   Overcast
7:56 AM 33.8 °F 23.2 °F -14.8 °F 12% 29.51 in 10.0 mi NW 17.3 mph - N/A   Overcast
8:16 AM 33.8 °F 22.5 °F -14.8 °F 12% 29.52 in 7.0 mi WNW 19.6 mph 24.2 mph N/A   Overcast
8:36 AM 33.8 °F 23.2 °F -14.8 °F 12% 29.54 in 10.0 mi WNW 17.3 mph - N/A   Overcast
8:56 AM 33.8 °F 22.8 °F -14.8 °F 12% 29.55 in 10.0 mi West 18.4 mph 23.0 mph N/A   Overcast
9:16 AM 33.8 °F 23.2 °F -14.8 °F 12% 29.56 in 3.0 mi West 17.3 mph 26.5 mph N/A   Overcast
9:36 AM 33.8 °F 23.9 °F -14.8 °F 12% 29.57 in 10.0 mi NW 15.0 mph - N/A   Mostly Cloudy
9:56 AM 33.8 °F 23.5 °F -14.8 °F 12% 29.58 in 10.0 mi WNW 16.1 mph 23.0 mph N/A   Overcast
10:16 AM 33.8 °F 22.5 °F -14.8 °F 12% 29.59 in 10.0 mi WNW 19.6 mph - N/A   Overcast
10:36 AM 33.8 °F 24.8 °F -14.8 °F 12% 29.60 in 10.0 mi WNW 12.7 mph - N/A   Overcast
10:56 AM 33.8 °F 23.5 °F -14.8 °F 12% 29.61 in 10.0 mi WNW 16.1 mph 20.7 mph N/A   Mostly Cloudy
11:16 AM 33.8 °F 24.8 °F -14.8 °F 12% 29.62 in 10.0 mi West 12.7 mph - N/A   Mostly Cloudy
11:36 AM 33.8 °F 24.8 °F -14.8 °F 12% 29.63 in 10.0 mi NW 12.7 mph - N/A   Overcast
11:56 AM 33.8 °F 25.3 °F -14.8 °F 12% 29.65 in 8.0 mi WNW 11.5 mph - N/A   Overcast
12:16 PM 35.6 °F 26.6 °F -14.8 °F 11% 29.65 in 10.0 mi WNW 13.8 mph 17.3 mph N/A   Overcast
12:36 PM 35.6 °F 25.9 °F -14.8 °F 11% 29.65 in 10.0 mi NW 16.1 mph 19.6 mph N/A   Overcast
12:56 PM 35.6 °F 25.9 °F -14.8 °F 11% 29.66 in 10.0 mi NW 16.1 mph 21.9 mph N/A   Overcast
1:16 PM 35.6 °F 26.6 °F -14.8 °F 11% 29.67 in 10.0 mi NW 13.8 mph - N/A   Overcast
1:36 PM 35.6 °F 26.2 °F - N/A% 29.68 in 10.0 mi NW 15.0 mph - N/A   Overcast
1:56 PM 33.8 °F 25.3 °F -14.8 °F 12% 29.69 in 10.0 mi West 11.5 mph - N/A   Overcast
2:16 PM 35.6 °F 25.9 °F -14.8 °F 11% 29.69 in 10.0 mi NW 16.1 mph - N/A   Overcast
2:36 PM 33.8 °F 25.8 °F -14.8 °F 12% 29.70 in 10.0 mi NW 10.4 mph - N/A   Mostly Cloudy
2:56 PM 33.8 °F 26.4 °F -14.8 °F 12% 29.71 in 1.8 mi WNW 9.2 mph - N/A   Overcast
3:16 PM 33.8 °F 27.7 °F -14.8 °F 12% 29.71 in 10.0 mi West 6.9 mph - N/A   Overcast
3:36 PM 33.8 °F 26.4 °F -14.8 °F 12% 29.72 in 10.0 mi WNW 9.2 mph - N/A   Overcast
3:56 PM 33.8 °F 24.3 °F -14.8 °F 12% 29.73 in 10.0 mi WNW 13.8 mph 19.6 mph N/A   Overcast
4:16 PM 33.8 °F 25.3 °F -14.8 °F 12% 29.74 in 10.0 mi WNW 11.5 mph - N/A   Overcast
4:36 PM 33.8 °F 24.3 °F -14.8 °F 12% 29.74 in 10.0 mi NW 13.8 mph 17.3 mph N/A   Overcast
4:56 PM 33.8 °F 25.3 °F -14.8 °F 12% 29.76 in 10.0 mi WNW 11.5 mph - N/A   Overcast
5:16 PM 33.8 °F 24.3 °F -14.8 °F 12% 29.76 in 7.0 mi WNW 13.8 mph - N/A   Mostly Cloudy
5:36 PM 32.0 °F 22.1 °F -14.8 °F 13% 29.78 in 10.0 mi WNW 13.8 mph 18.4 mph N/A   Mostly Cloudy
5:56 PM 32.0 °F 23.6 °F -16.6 °F 12% 29.79 in 10.0 mi WNW 10.4 mph - N/A   Overcast
6:16 PM 32.0 °F 22.1 °F -16.6 °F 12% 29.80 in 8.0 mi West 13.8 mph - N/A   Overcast
6:36 PM 32.0 °F 22.1 °F -16.6 °F 12% 29.80 in 10.0 mi West 13.8 mph - N/A   Overcast
6:56 PM 33.8 °F 25.3 °F -16.6 °F 11% 29.81 in 10.0 mi WNW 11.5 mph - N/A   Overcast
7:16 PM 33.8 °F 25.8 °F -14.8 °F 12% 29.82 in 10.0 mi West 10.4 mph - N/A   Overcast
7:36 PM 33.8 °F 26.4 °F -14.8 °F 12% 29.82 in 10.0 mi West 9.2 mph - N/A   Overcast
7:56 PM 33.8 °F 25.3 °F -14.8 °F 12% 29.84 in 10.0 mi WNW 11.5 mph - N/A   Overcast
8:16 PM 33.8 °F 25.8 °F -14.8 °F 12% 29.84 in 10.0 mi WNW 10.4 mph - N/A   Mostly Cloudy
8:36 PM 30.2 °F 21.9 °F -16.6 °F 13% 29.85 in 10.0 mi West 9.2 mph - N/A   Mostly Cloudy
8:56 PM 32.0 °F 23.0 °F -16.6 °F 12% 29.87 in 9.0 mi WNW 11.5 mph - N/A   Mostly Cloudy
9:16 PM 32.0 °F 24.2 °F -16.6 °F 12% 29.88 in 10.0 mi WSW 9.2 mph - N/A   Overcast
9:36 PM 32.0 °F 24.8 °F -16.6 °F 12% 29.88 in 10.0 mi WSW 8.1 mph - N/A   Overcast
9:56 PM 30.2 °F 22.6 °F -16.6 °F 13% 29.89 in 10.0 mi WSW 8.1 mph - N/A   Overcast
10:16 PM 32.0 °F 24.2 °F -16.6 °F 12% 29.90 in 10.0 mi West 9.2 mph - N/A   Overcast
10:56 PM 30.2 °F 20.8 °F -16.6 °F 13% 29.91 in 10.0 mi West 11.5 mph - N/A   Overcast
11:16 PM 30.2 °F 21.3 °F -16.6 °F 13% 29.93 in 10.0 mi West 10.4 mph - N/A   Overcast
11:36 PM 30.2 °F 21.9 °F -16.6 °F 13% 29.95 in 10.0 mi West 9.2 mph - N/A   Overcast
11:56 PM 30.2 °F 23.4 °F -16.6 °F 13% 29.95 in 10.0 mi West 6.9 mph - N/A   Overcast